This is the latest recevied weather packets stored in our database for station/object KJ6HT. If no packets are shown the sender has not sent any weather packets the latest 10 day(s).
| Time | Temp. | Humidity | Pressure | Rain* | Wind** | Luminosity | Snow |
|---|---|---|---|---|---|---|---|
| 1777038380 | 11.67° C | 89% | 1012.5 hPa | 0 mm | - | - | - |
| 1777037441 | 10.56° C | 89% | 1012.4 hPa | 0 mm | - | - | - |
| 1777036592 | 11.11° C | 87% | 1012.1 hPa | 0 mm | - | - | - |
| 1777035674 | 11.11° C | 87% | 1012 hPa | 0 mm | - | - | - |
| 1777034726 | 11.67° C | 86% | 1012 hPa | 0 mm | - | - | - |
| 1777033809 | 12.22° C | 84% | 1011.9 hPa | 0 mm | - | - | - |
| 1777032970 | 12.22° C | 82% | 1011.8 hPa | 0 mm | - | - | - |
| 1777032030 | 11.67° C | 84% | 1011.7 hPa | 0 mm | - | - | - |
| 1777031180 | 11.67° C | 82% | 1011.9 hPa | 0 mm | - | - | - |
| 1777030270 | 12.22° C | 83% | 1012 hPa | 0 mm | - | - | - |
| 1777029330 | 12.22° C | 82% | 1011.9 hPa | 0 mm | - | - | - |
| 1777028403 | 12.22° C | 81% | 1011.9 hPa | 0 mm | - | - | - |
| 1777027575 | 12.22° C | 81% | 1011.9 hPa | 0 mm | - | - | - |
| 1777026649 | 12.22° C | 80% | 1011.8 hPa | 0 mm | - | - | - |
| 1777025719 | 12.78° C | 80% | 1011.9 hPa | 0 mm | - | - | - |
| 1777024871 | 12.78° C | 79% | 1012 hPa | 0 mm | - | - | - |
| 1777023935 | 12.78° C | 79% | 1012.1 hPa | 0 mm | - | - | - |
| 1777023023 | 12.78° C | 79% | 1012.1 hPa | 0 mm | - | - | - |
| 1777022175 | 12.78° C | 78% | 1012.2 hPa | 0 mm | - | - | - |
| 1777021261 | 12.78° C | 79% | 1012.3 hPa | 0 mm | - | - | - |
| 1777020338 | 12.22° C | 79% | 1012.5 hPa | 0 mm | - | - | - |
| 1777019473 | 12.78° C | 78% | 1012.5 hPa | 0 mm | - | - | - |
| 1777018541 | 13.33° C | 76% | 1012.6 hPa | 0 mm | - | - | - |
| 1777017615 | 13.89° C | 75% | 1012.7 hPa | 0 mm | - | - | - |
| 1777016773 | 13.89° C | 75% | 1012.9 hPa | 0 mm | - | - | - |
* Rain latest hour (hover to see other rain measurements)
** Current wind speed in m/s (hover to see current wind gust speed)